Location: Waco, TX
(31.5480°N, 97.1670°W)
Time: 21:39:39

ISS - Pass Details

Date: 09 March 2018
Orbit: 403 x 406 km, 51.6° (Epoch: 24 March)

Event Time Altitude Azimuth Distance (km) Brightness Sun altitude
Rises 00:40:30 0° 190° (S) 2,310 - -62.9°
Reaches altitude 10° 00:43:04 10° 169° (S) 1,455 - -62.9°
Maximum altitude 00:45:15 17° 127° (SE) 1,123 - -62.9°
Drops below altitude 10° 00:47:25 10° 85° (E) 1,460 - -62.9°
Sets 00:50:00 0° 64° (ENE) 2,324 - -62.8°
